Powrót do katalogu

FENGYUN 1C DEB

AktywnyLEO
NORAD 30161·DEBRIS·🇨🇳 China

Wystrzelony May 10, 1999 z Taiyuan Satellite Launch Center

Loading…

Następne Przeloty (najbliższe 24 godziny)

TLE

ŚwieżeSource: Space-Track

Epoka: Sep 14, 2026, 11:21 UTC

1 30161U 99025TS  26257.47299558  .00000818  00000-0  97535-3 0  9996
2 30161 100.5181 265.5369 0325597 311.5289 216.8800 13.50476429962806

Śledź FENGYUN 1C DEB w czasie rzeczywistym z AllMySat

Download on the App Store